Content
SEND FEEDBACK

Daily
Averages
Monthly
Summary
United States of America

RAMOS, PUERTO RICO


Home > North America > United States > Puerto Rico
Elevation: 120 meters     Latitude: 18 18N     Longitude: 065 42W

WEATHER
 
SELECT A DAY
Number of Records: 127,561;   Date Range: 6/30/96 - 10/19/14
 
SHARE

PRINT THIS DATA

[ ← Previous Day ]
WEATHER ALMANAC - 13 FEBRUARY, 2013
[ Next Day → ]
[ °F ]   °C
Weather ElementAverageHighLow
Temperature25.6 °C28.3 °C (12:53 pm)23.9 °C (2:53 am)
Dewpoint18.6 °C21.1 °C (11:53 pm)17.2 °C (4:53 am)
Humidity65.5 %79 % (11:53 pm)51 % (12:53 pm)
Barometer1017.9 hPa1019.6 hPa (10:53 am)1016.6 hPa (4:53 pm)
Wind Speed12.2 km/h14.8 km/h (6:53 am)
Wind Gust27.8 km/h (11:53 pm)
Weather ElementAverage
Visibility16.1 km
Wind DirectionENE (72.6 °)

Weather ElementTotal
Precipitation---
Cooling Degree Days7.8 (Base 18.3)
Growing Degree Days16.1 (Base 10)
Averaged from 23 records on 13 February, 2013
WEATHER CONDITIONS BREAKOUT
WIND DIRECTION BREAKOUT
WEATHER BY HOUR - 13 FEBRUARY, 2013
[ °F ]   °C
Local TimeTemperatureDewpointHumidityBarometerVisibilityWind DirectionWind SpeedGust SpeedPrecipitationEventsConditions
1:53 AM24.4 °C18.9 °C71 %1017.9 hPa16.1 kmENE (60°)13 km/hClear
2:53 AM23.9 °C18.3 °C71 %1017.6 hPa16.1 kmENE (70°)11.1 km/hScattered Clouds
3:53 AM23.9 °C18.3 °C71 %1017.3 hPa16.1 kmEast (80°)11.1 km/hClear
4:53 AM23.9 °C17.2 °C66 %1016.9 hPa16.1 kmENE (60°)13 km/hClear
5:53 AM23.9 °C17.2 °C66 %1017.3 hPa16.1 kmEast (80°)11.1 km/hClear
6:53 AM23.9 °C17.2 °C66 %1017.3 hPa16.1 kmEast (80°)14.8 km/hMostly Cloudy
7:53 AM25 °C17.8 °C64 %1018.3 hPa16.1 kmEast (90°)11.1 km/hPartly Cloudy
8:53 AM26.1 °C17.8 °C60 %1019 hPa16.1 kmEast (80°)14.8 km/hClear
9:53 AM26.7 °C18.3 °C60 %1019.3 hPa16.1 kmENE (70°)14.8 km/hClear
10:53 AM27.8 °C17.2 °C52 %1019.6 hPa16.1 kmEast (80°)11.1 km/h25.9 km/hPartly Cloudy
11:53 AM27.8 °C17.2 °C52 %1019 hPa16.1 kmEast (100°)13 km/hClear
12:53 PM28.3 °C17.2 °C51 %1018.3 hPa16.1 kmESE (110°)13 km/hClear
1:53 PM27.8 °C18.3 °C56 %1017.6 hPa16.1 kmVariable11.1 km/hClear
2:53 PM27.2 °C19.4 °C62 %1017.3 hPa16.1 kmENE (70°)13 km/hPartly Cloudy
3:53 PM27.2 °C19.4 °C62 %1016.9 hPa16.1 kmENE (70°)11.1 km/hClear
4:53 PM26.1 °C19.4 °C66 %1016.6 hPa16.1 kmENE (70°)13 km/hClear
5:53 PM25.6 °C19.4 °C68 %1016.6 hPa16.1 kmENE (70°)11.1 km/hClear
6:53 PM25 °C19.4 °C71 %1017.3 hPa16.1 kmENE (70°)9.3 km/hScattered Clouds
7:53 PM24.4 °C18.9 °C71 %1017.6 hPa16.1 kmEast (80°)9.3 km/hClear
8:53 PM25 °C19.4 °C71 %1017.9 hPa16.1 kmENE (70°)11.1 km/hClear
9:53 PM25 °C20 °C74 %1018.6 hPa16.1 kmENE (70°)13 km/hScattered Clouds
10:53 PM25 °C20.6 °C76 %1018.6 hPa16.1 kmENE (60°)13 km/hPartly Cloudy
11:53 PM25 °C21.1 °C79 %1018.6 hPa16.1 kmEast (80°)14.8 km/h27.8 km/hOvercast
Hourly data recorded from TJNR, located 0 kilometers away from Ramos, Puerto Rico







STORIES FROM OUR PARTNERS